Flag for Portugal Weather past 2 weeks in Loures, Portugal

Now
68 °F

Passing clouds.


Feels Like: 68 °F
Forecast: 65 / 76 °F
Wind: 9 mph from Northwest

Location: Lisbon Portela Airport

Current Time: Sep 1, 2015 at 1:05:45 AM

Latest Report: Sep 1, 2015 at 12:30 AM


Visibility: N/A

Pressure: 30.04 "Hg

Humidity: 83%

Dew point: 63 °F

Location of LouresLocation

Historic Weather in Loures — Graph

°F

Loures temperature yesterday

Maximum temperature yesterday: 79 °F (at 1:00 PM)
Minimum temperature yesterday: 68 °F (at 11:30 PM)
Average temperature yesterday: 73 °F

Past Weeks' High & Low Weather Summary

 TemperatureHumidityPressure
High93 °F (Aug 20, 2:00 PM)100% (Aug 23, 9:00 PM)30.12 "Hg (Aug 23, 9:00 PM)
Low59 °F (Aug 25, 5:00 AM)22% (Aug 29, 2:00 PM)29.89 "Hg (Aug 29, 4:30 PM)
Average72 °F69%30.01 "Hg
* Reported Midnight between Aug 16 and Aug 17 — Midnight between Aug 31 and Sep 1, Loures, Weather by CustomWeather, © 2015

Note: Actual official high and low records may vary slightly from our data, if they occured in-between our weather recording intervals... More about our weather records

Advertising

Loures weather history for previous 24 hours

 ConditionsComfort  
Time TempWeatherWind HumidityBarometerVisibility
12:00 AM
Tue, Sep 1
68 °FPassing clouds.8 mph83%30.04 "HgN/A
11:30 PM
Mon, Aug 31
68 °FPassing clouds.9 mph88%30.04 "HgN/A
10:30 PM70 °FPassing clouds.9 mph83%30.04 "HgN/A
10:00 PM70 °FPassing clouds.7 mph88%30.01 "HgN/A
9:30 PM70 °FPassing clouds.9 mph83%30.01 "HgN/A
9:00 PM72 °FPassing clouds.9 mph78%30.01 "HgN/A
8:30 PM72 °FPassing clouds.10 mph78%30.01 "HgN/A
8:00 PM73 °FPassing clouds.9 mph69%30.01 "HgN/A
7:30 PM73 °FPassing clouds.13 mph78%30.01 "HgN/A
7:00 PM75 °FPassing clouds.12 mph69%29.98 "HgN/A
6:30 PM75 °FPassing clouds.13 mph69%29.98 "HgN/A
6:00 PM75 °FPassing clouds.13 mph69%29.98 "HgN/A
5:30 PM77 °FPassing clouds.12 mph65%29.98 "HgN/A
5:00 PM77 °FPassing clouds.13 mph61%29.98 "HgN/A
4:30 PM77 °FPassing clouds.13 mph57%29.98 "HgN/A
4:00 PM77 °FPassing clouds.14 mph61%30.01 "HgN/A
3:30 PM79 °FPassing clouds.13 mph54%30.01 "HgN/A
3:00 PM79 °FScattered clouds.15 mph61%30.01 "HgN/A
2:30 PM79 °FScattered clouds.14 mph61%30.01 "HgN/A
2:00 PM79 °FScattered clouds.13 mph61%30.01 "HgN/A
1:30 PM79 °FScattered clouds.13 mph58%30.01 "HgN/A
1:00 PM79 °FScattered clouds.12 mph58%30.01 "HgN/A
12:30 PM77 °FScattered clouds.9 mph65%30.01 "HgN/A
12:00 PM75 °FScattered clouds.10 mph69%30.01 "HgN/A
11:30 AM75 °FBroken clouds.10 mph74%30.01 "HgN/A
11:00 AM73 °FBroken clouds.9 mph78%30.01 "HgN/A
10:30 AM73 °FBroken clouds.9 mph78%30.01 "HgN/A
10:00 AM72 °FLight rain. Partly sunny.8 mph83%29.98 "HgN/A
9:30 AM72 °FLight rain. Broken clouds.7 mph83%29.98 "HgN/A
9:00 AM72 °FBroken clouds.6 mph83%29.98 "HgN/A
8:30 AM70 °FBroken clouds.8 mph88%29.98 "HgN/A
8:00 AM70 °FPartly cloudy.7 mph88%29.98 "HgN/A
7:30 AM70 °FPartly cloudy.7 mph88%29.98 "HgN/A
7:00 AM70 °FPassing clouds.8 mph83%29.98 "HgN/A
6:30 AM70 °FPassing clouds.7 mph83%29.95 "HgN/A
6:00 AM70 °FPassing clouds.7 mph83%29.95 "HgN/A
5:30 AM70 °FPassing clouds.6 mph88%29.95 "HgN/A
5:00 AM70 °FPassing clouds.7 mph88%29.95 "HgN/A
4:30 AM70 °FPassing clouds.9 mph88%29.98 "HgN/A
4:00 AM70 °FPassing clouds.5 mph88%29.98 "HgN/A
3:30 AM70 °FPassing clouds.7 mph88%29.98 "HgN/A
3:00 AM70 °FPassing clouds.7 mph88%29.98 "HgN/A
2:30 AM72 °FPassing clouds.5 mph83%29.98 "HgN/A
2:00 AM70 °FPartly cloudy.6 mph88%29.98 "HgN/A
1:30 AM70 °FPartly cloudy.6 mph88%29.98 "HgN/A
1:00 AM70 °FPartly cloudy.7 mph88%29.98 "HgN/A
Weather by CustomWeather, © 2015

See weather overviewHow to use our weather pages